Wind_Speed
5 5 5 5 5 5 6 10 14 18 19 17 15 12 12 9 7 4 3 3 6 6 4 4 3 1 1 3 3 6 10 13 8 9 16 18 20 25 29 28 23 21 25 23 21
6 6 5 5 6 6 9 12 15 18 19 17 14 13 11 8 6 4 1 3 5 7 6 5 5 3 2 5 5 8 12 12 9 15 21 21 21 23 27 27 22 21 22 22 20
8 7 6 6 7 8 11 14 16 18 19 16 13 12 10 8 6 3 3 6 7 8 7 8 7 7 7 6 8 14 14 12 12 15 21 20 20 21 23 22 18 20 22 23 20
9 8 6 7 8 9 13 17 17 18 18 16 13 11 10 8 3 1 4 8 7 7 11 8 8 8 10 9 6 17 16 19 14 15 19 20 21 21 20 20 19 19 20 25 23
8 6 7 7 8 11 16 18 18 18 17 16 14 11 11 10 8 6 9 12 13 13 12 11 9 12 12 12 11 17 17 15 17 17 19 21 14 22 16 11 13 13 17 20 23
6 5 7 7 8 12 17 18 18 18 17 15 14 13 13 11 10 9 13 17 15 12 13 11 12 12 16 14 15 17 16 17 16 12 14 20 20 19 13 14 13 14 13 18 19
5 5 6 5 8 14 18 18 17 17 16 15 14 14 15 10 13 13 16 17 16 15 14 13 13 12 15 14 12 16 19 5 8 15 21 24 23 22 21 19 24 22 21 22 23
6 6 8 7 11 16 17 16 16 16 15 15 15 17 17 14 17 15 18 17 17 15 13 13 12 13 13 13 13 15 9 11 16 15 22 25 29 26 23 29 21 22 25 23 23
8 8 8 8 10 14 15 16 15 15 16 16 16 18 16 16 17 16 17 17 12 12 10 11 12 12 10 7 9 7 10 17 23 23 18 22 29 24 29 18 10 12 15 16 15
9 9 9 8 9 11 13 14 14 15 16 16 16 15 15 12 8 7 7 8 10 10 9 11 11 5 2 9 10 16 22 25 26 19 22 24 28 26 13 4 7 13 14 14 14
10 10 9 10 10 10 10 10 11 12 13 10 10 7 16 10 7 7 5 7 11 13 12 9 8 5 4 10 15 20 23 26 19 16 22 26 29 15 3 5 9 7 6 8 11
12 11 11 11 11 10 9 9 9 9 11 10 11 15 17 18 14 15 14 14 15 12 8 10 12 6 7 11 18 20 19 18 19 15 23 27 21 1 2 7 6 9 8 11 13
14 13 13 12 11 10 10 8 9 10 14 10 14 16 19 20 19 19 16 11 10 12 9 15 7 10 16 13 13 14 16 17 19 23 22 19 2 4 1 2 7 11 10 12 13
16 15 14 15 13 13 9 8 8 7 8 6 6 8 14 19 19 16 13 12 10 8 7 9 6 9 11 14 13 15 9 12 18 20 11 17 6 1 7 7 5 9 14 16 18
17 16 15 14 13 11 9 8 4 2 3 3 7 8 6 10 5 4 9 8 7 10 9 5 8 10 13 14 8 10 11 14 16 12 14 4 4 4 12 8 4 9 17 18 19
16 16 15 14 13 10 8 7 7 5 7 4 3 5 7 7 9 5 6 6 7 11 13 9 11 12 10 6 5 7 12 12 7 6 3 2 2 5 9 6 6 13 18 19 20
16 16 15 14 11 11 10 10 7 7 3 4 5 5 7 7 8 8 7 7 8 5 5 5 10 10 9 6 4 11 11 4 3 1 4 1 9 12 11 16 15 17 19 25 27
16 17 16 14 13 13 13 14 9 4 8 4 2 7 9 7 8 7 9 10 8 9 8 5 5 5 4 5 8 10 4 1 3 2 3 17 7 6 9 9 8 26 17 19 24
17 17 16 14 15 15 16 17 8 5 8 8 8 8 9 10 9 7 8 9 8 10 7 3 5 4 7 11 7 3 4 3 6 11 2 6 5 6 10 3 15 13 17 23 28
16 17 17 17 17 18 19 22 15 10 8 6 8 6 5 9 7 7 4 5 10 13 13 8 7 10 9 8 9 8 6 5 4 2 3 5 9 15 6 8 14 17 28 35 40
16 17 17 19 20 22 28 27 21 18 13 10 12 10 11 6 8 11 5 7 11 12 11 12 11 8 10 9 9 8 7 5 4 6 4 2 6 7 15 15 21 31 36 39 40
18 18 18 20 24 27 30 28 22 21 18 17 18 17 16 16 12 15 15 13 7 6 9 10 8 12 17 16 16 13 11 11 7 5 6 6 21 11 16 17 23 38 42 42 38
21 21 20 20 26 28 27 25 25 23 22 20 18 17 18 19 15 14 18 18 17 14 8 7 6 5 4 7 3 5 4 7 10 16 18 10 12 8 7 26 36 39 34 30 34
23 21 25 24 26 28 27 26 24 22 24 21 23 20 19 18 18 11 16 15 17 16 14 15 16 18 17 14 19 24 25 25 21 19 23 36 43 42 34 27 30 30 31 34 39
26 27 26 18 33 28 22 20 21 25 21 21 24 23 19 19 18 22 21 18 19 18 17 17 22 23 25 24 24 28 33 33 33 34 34 42 36 31 31 28 28 34 36 40 41
29 30 30 28 26 15 25 31 26 23 20 19 22 19 16 22 21 10 16 20 18 18 15 18 20 19 22 25 24 28 26 25 25 26 29 27 28 18 22 26 33 38 39 38 43
32 32 32 29 29 28 29 24 21 28 30 28 26 20 20 21 19 23 22 18 22 22 20 21 22 15 12 9 16 22 3 1 5 7 12 16 19 26 29 33 35 37 34 41 52
Wind_Direction
260 221 197 197 202 204 192 191 173 163 162 160 156 154 159 161 158 151 122 90 41 21 12 9 316 202 333 208 221 250 256 266 263 271 286 275 284 284 286 291 290 282 279 289 290
241 216 207 210 209 203 192 187 178 170 169 166 162 161 170 176 187 195 270 45 358 345 341 340 331 283 346 283 258 290 277 285 283 262 271 271 280 284 287 294 300 290 287 288 279
240 234 204 224 220 205 194 184 179 176 176 172 168 170 180 190 212 259 266 341 323 320 326 327 323 289 293 273 291 293 289 298 294 268 275 290 290 287 292 300 319 295 289 285 279
235 237 219 230 229 210 196 184 179 181 182 183 183 183 193 204 199 85 325 315 303 300 309 307 307 298 289 287 288 277 300 306 302 292 295 297 297 299 292 318 302 281 273 276 284
241 237 242 232 227 209 193 184 180 182 187 190 196 200 206 214 216 271 282 292 289 294 297 295 305 304 296 295 271 276 304 295 298 296 297 299 315 307 335 305 301 301 285 289 291
250 261 261 235 217 202 190 186 184 185 192 198 204 214 225 228 229 260 273 280 290 287 294 290 296 296 293 290 279 297 299 306 302 318 314 312 317 318 344 308 299 295 284 290 281
240 249 259 228 206 193 188 188 190 193 198 208 216 226 237 238 249 253 261 274 279 284 288 291 291 293 294 300 298 305 312 349 1 345 322 325 313 325 336 326 312 294 290 289 291
224 230 230 216 196 185 186 191 195 201 208 218 228 238 243 249 258 270 272 278 278 284 283 287 290 292 294 299 302 309 300 319 323 326 324 316 305 324 327 321 306 281 276 285 291
217 214 209 197 193 192 190 197 201 210 217 225 235 249 262 257 258 264 273 274 272 272 276 285 289 296 298 309 321 3 324 302 307 313 306 305 306 332 332 316 327 321 309 299 295
222 208 205 191 192 197 198 205 210 220 226 233 242 258 252 256 260 261 276 273 277 280 276 287 285 293 266 326 294 306 310 303 305 319 307 309 315 336 316 288 359 350 343 329 324
226 217 212 211 201 202 199 201 210 223 227 235 244 254 256 250 252 274 266 262 278 288 298 287 279 299 281 301 298 298 296 295 307 313 311 315 313 343 165 286 16 340 346 358 4
222 224 220 218 213 212 212 215 223 237 228 228 242 248 256 260 261 263 264 273 278 277 268 269 273 284 286 286 287 288 293 302 313 316 306 313 329 102 345 350 335 343 12 16 14
222 223 226 223 219 213 213 213 229 261 279 229 244 251 251 258 260 261 265 268 272 277 260 252 260 267 283 291 293 293 296 305 306 316 320 317 13 10 235 265 306 320 337 353 5
222 221 226 227 223 223 204 213 228 264 302 283 246 254 244 246 255 255 259 256 261 269 261 273 275 266 277 291 294 299 306 309 306 314 324 322 293 256 205 242 275 313 319 344 348
220 223 221 227 225 221 212 202 207 252 320 222 228 244 235 219 211 210 220 227 237 257 258 263 270 280 286 298 295 298 317 313 303 309 317 308 266 146 197 205 282 305 308 321 320
221 220 220 221 220 214 200 192 181 198 249 220 226 222 222 201 201 185 191 217 244 256 261 281 270 283 303 300 291 299 315 306 265 308 301 330 297 293 190 264 279 284 306 319 334
219 219 216 220 215 213 196 180 181 220 193 232 230 211 197 195 217 220 232 245 253 254 250 280 274 275 284 284 267 320 324 333 344 322 232 145 311 276 294 284 289 317 341 334 328
216 217 215 214 203 199 195 184 211 193 217 224 217 203 208 222 232 226 248 263 239 232 283 285 268 249 246 279 300 309 288 276 254 246 265 306 249 18 331 317 346 337 341 329 325
216 215 211 207 206 202 201 198 210 226 231 240 214 206 213 226 237 235 257 251 251 230 240 257 257 234 274 294 300 280 270 261 281 276 280 244 264 321 45 31 340 335 326 324 327
217 217 209 208 208 210 211 218 213 223 238 243 219 212 235 226 226 212 225 240 243 252 256 257 275 276 272 271 291 259 266 261 228 267 285 275 276 269 301 49 357 335 327 327 327
215 215 208 211 211 213 220 224 222 229 240 238 225 223 221 206 219 208 229 241 243 250 252 240 266 271 276 286 296 263 238 240 228 256 197 279 242 243 277 298 312 321 319 317 313
219 218 212 213 215 220 228 231 230 238 245 250 242 233 239 240 234 233 236 231 235 225 248 256 266 271 284 283 282 269 262 260 226 244 235 293 282 291 260 273 290 306 309 311 316
223 221 221 218 223 228 233 235 239 243 246 251 249 246 244 235 243 244 241 244 249 258 255 245 234 276 273 265 253 215 213 261 289 280 261 253 256 183 267 293 297 298 304 313 314
225 226 226 226 229 231 235 240 243 246 253 254 254 248 248 246 239 240 232 237 248 258 255 254 252 248 251 269 277 278 267 272 272 262 263 253 271 290 301 309 303 305 310 312 313
222 228 229 230 232 234 235 238 244 244 251 249 247 248 250 250 246 239 239 247 253 261 256 256 263 270 276 279 273 272 273 270 268 266 266 280 279 303 309 300 303 306 309 309 310
227 230 233 233 235 229 234 238 240 246 246 251 252 257 249 247 247 234 233 247 252 261 254 260 270 277 282 287 284 274 275 273 270 268 266 281 294 304 298 295 296 299 305 305 309
230 235 236 241 242 245 242 246 244 247 247 256 261 257 255 250 245 242 239 250 253 263 268 268 271 279 291 292 282 285 284 282 285 285 282 281 283 283 286 289 294 300 300 305 314
Height
3159 3159 3159 3160 3161 3163 3163 3166 3166 3167 3170 3172 3174 3176 3178 3179 3180 3180 3180 3181 3181 3182 3182 3182 3182 3181 3181 3180 3181 3181 3181 3179 3179 3179 3177 3176 3175 3173 3172 3171 3169 3167 3164 3165 3165
3158 3157 3158 3159 3160 3161 3162 3164 3166 3167 3170 3172 3173 3175 3177 3179 3179 3180 3181 3180 3181 3181 3181 3181 3180 3179 3179 3179 3178 3178 3178 3177 3178 3175 3173 3173 3172 3171 3167 3165 3164 3163 3161 3161 3160
3157 3157 3156 3158 3159 3159 3161 3163 3165 3168 3170 3172 3173 3174 3176 3178 3179 3180 3180 3180 3180 3180 3180 3179 3179 3179 3177 3176 3176 3174 3174 3174 3173 3172 3170 3169 3168 3166 3163 3160 3162 3159 3155 3154 3154
3155 3155 3154 3156 3157 3157 3160 3162 3164 3167 3170 3171 3173 3173 3175 3177 3180 3178 3179 3179 3179 3179 3179 3178 3177 3177 3176 3174 3174 3171 3171 3170 3169 3168 3166 3165 3164 3162 3160 3159 3157 3154 3152 3149 3149
3153 3153 3152 3153 3154 3156 3159 3161 3163 3166 3169 3170 3171 3172 3173 3176 3177 3177 3178 3178 3178 3177 3177 3176 3175 3175 3175 3173 3172 3169 3168 3168 3166 3165 3163 3161 3162 3158 3157 3154 3153 3151 3148 3147 3145
3150 3151 3152 3152 3152 3154 3158 3160 3162 3165 3167 3169 3170 3171 3172 3174 3175 3175 3176 3176 3175 3175 3174 3174 3173 3172 3171 3170 3169 3167 3165 3164 3162 3162 3160 3157 3157 3155 3155 3151 3149 3147 3146 3144 3143
3149 3149 3151 3150 3151 3154 3157 3159 3162 3164 3165 3167 3168 3168 3169 3173 3172 3173 3173 3173 3173 3173 3172 3171 3170 3170 3169 3168 3166 3165 3162 3161 3161 3160 3156 3152 3149 3152 3150 3147 3144 3142 3140 3138 3137
3146 3148 3150 3150 3151 3153 3156 3158 3160 3163 3164 3166 3166 3166 3166 3169 3168 3169 3169 3170 3169 3170 3169 3168 3168 3167 3166 3166 3164 3161 3160 3159 3157 3156 3153 3151 3141 3145 3146 3142 3138 3135 3134 3132 3131
3145 3147 3149 3149 3150 3154 3154 3157 3158 3161 3161 3163 3164 3163 3164 3166 3165 3166 3167 3166 3166 3167 3167 3166 3165 3164 3164 3163 3162 3160 3159 3158 3156 3154 3151 3149 3139 3142 3139 3135 3133 3131 3130 3128 3127
3144 3146 3148 3148 3150 3152 3153 3154 3156 3159 3160 3161 3160 3163 3162 3163 3163 3163 3163 3164 3165 3164 3165 3164 3162 3162 3161 3161 3160 3158 3157 3155 3153 3152 3146 3144 3137 3136 3134 3133 3131 3130 3129 3126 3124
3143 3144 3145 3147 3148 3151 3152 3153 3156 3158 3156 3157 3156 3157 3159 3161 3161 3161 3161 3162 3162 3162 3161 3160 3159 3159 3159 3159 3158 3157 3155 3152 3151 3148 3142 3140 3135 3134 3132 3131 3130 3130 3128 3126 3124
3141 3143 3144 3145 3146 3149 3150 3151 3153 3154 3152 3152 3152 3153 3155 3158 3159 3158 3160 3159 3159 3160 3159 3159 3155 3156 3156 3157 3156 3154 3152 3150 3147 3144 3140 3135 3132 3131 3131 3130 3129 3129 3129 3126 3124
3138 3139 3142 3143 3145 3147 3148 3149 3150 3149 3148 3148 3149 3149 3153 3155 3154 3154 3156 3155 3154 3156 3157 3155 3154 3154 3154 3153 3152 3151 3149 3147 3145 3140 3139 3132 3130 3129 3130 3128 3127 3127 3127 3125 3123
3135 3137 3140 3141 3145 3143 3145 3146 3148 3147 3146 3145 3145 3146 3147 3149 3150 3150 3151 3153 3152 3154 3154 3152 3151 3151 3151 3150 3149 3148 3147 3146 3143 3140 3136 3135 3133 3128 3129 3127 3125 3124 3123 3123 3120
3132 3134 3136 3138 3140 3142 3145 3144 3144 3147 3148 3144 3143 3143 3144 3147 3147 3147 3148 3149 3150 3152 3153 3152 3149 3148 3148 3148 3146 3147 3146 3144 3141 3138 3134 3134 3135 3129 3128 3125 3125 3123 3121 3122 3120
3128 3130 3133 3135 3137 3140 3140 3141 3145 3148 3142 3141 3140 3141 3143 3143 3146 3146 3146 3147 3149 3149 3148 3147 3146 3146 3146 3145 3144 3144 3144 3141 3137 3136 3135 3133 3135 3129 3128 3125 3124 3121 3122 3121 3118
3124 3127 3130 3132 3135 3136 3138 3140 3145 3141 3139 3140 3139 3140 3141 3142 3144 3144 3144 3145 3147 3147 3145 3144 3143 3143 3144 3144 3143 3143 3142 3139 3139 3138 3136 3134 3134 3127 3127 3125 3123 3122 3120 3118 3115
3121 3125 3126 3129 3131 3133 3135 3139 3139 3136 3135 3137 3138 3139 3140 3140 3142 3142 3141 3142 3143 3144 3143 3142 3142 3141 3141 3142 3141 3140 3140 3140 3141 3139 3135 3133 3129 3127 3124 3122 3122 3119 3116 3113 3110
3118 3120 3122 3125 3127 3130 3133 3133 3133 3133 3133 3135 3136 3137 3138 3138 3141 3139 3139 3139 3140 3141 3143 3141 3140 3139 3139 3139 3140 3139 3139 3139 3137 3136 3134 3129 3127 3126 3123 3122 3120 3115 3111 3108 3105
3113 3115 3118 3120 3123 3126 3127 3128 3130 3130 3132 3133 3133 3135 3135 3136 3137 3137 3137 3137 3137 3139 3139 3139 3138 3136 3137 3137 3137 3136 3138 3137 3136 3136 3134 3125 3124 3122 3121 3119 3117 3113 3108 3104 3100
3109 3111 3114 3116 3119 3121 3121 3123 3126 3127 3129 3131 3131 3133 3134 3133 3134 3134 3134 3135 3135 3136 3136 3136 3136 3135 3134 3134 3133 3134 3133 3134 3134 3132 3131 3131 3121 3118 3116 3114 3112 3108 3106 3103 3100
3104 3108 3109 3111 3115 3114 3116 3120 3122 3123 3126 3126 3128 3129 3130 3131 3131 3132 3131 3131 3132 3132 3133 3133 3131 3130 3131 3131 3129 3129 3129 3129 3129 3130 3128 3127 3113 3112 3110 3110 3107 3104 3101 3099 3095
3099 3102 3104 3106 3107 3109 3113 3114 3117 3119 3121 3122 3124 3124 3125 3127 3129 3128 3127 3128 3129 3129 3129 3128 3127 3128 3128 3129 3126 3126 3126 3126 3126 3125 3122 3125 3110 3108 3107 3107 3103 3099 3097 3095 3091
3094 3095 3098 3100 3103 3106 3108 3109 3111 3114 3115 3117 3119 3119 3120 3121 3123 3124 3123 3124 3124 3125 3125 3125 3123 3125 3124 3125 3124 3122 3121 3120 3121 3118 3115 3107 3102 3102 3102 3099 3096 3093 3091 3088 3082
3087 3089 3092 3094 3097 3099 3103 3104 3106 3108 3110 3112 3112 3113 3115 3117 3118 3118 3119 3119 3119 3120 3121 3120 3118 3120 3119 3117 3116 3114 3110 3111 3111 3111 3109 3094 3100 3097 3096 3093 3090 3086 3084 3080 3075
3080 3084 3087 3089 3091 3094 3096 3097 3101 3104 3105 3107 3107 3108 3110 3111 3113 3112 3114 3114 3114 3114 3115 3115 3114 3113 3111 3111 3109 3103 3099 3099 3100 3099 3098 3096 3092 3093 3089 3088 3087 3082 3078 3073 3068
3074 3077 3081 3082 3085 3088 3090 3093 3096 3101 3101 3100 3103 3104 3105 3107 3107 3109 3109 3110 3110 3110 3110 3110 3110 3110 3105 3106 3103 3097 3092 3092 3093 3094 3094 3092 3090 3087 3085 3082 3080 3076 3072 3066 3060